Regional Weather Roundup
Issued by NWS Cleveland, OH

Home | Current Version | Previous Version | Graphics & Text | Print | Product List | Glossary On
Versions: 1 2 3 4 5 6 7 8 9 10 11 12 13 14 15 16 17 18 19 20 21 22 23 24 25 26 27 28 29 30 31 32 33 34 35 36 37 38 39 40 41 42 43 44 45 46 47 48 49 50
000
ASUS41 KCLE 170710
RWRCLE
OHIO REGIONAL WEATHER ROUNDUP
NATIONAL WEATHER SERVICE CLEVELAND, OH
200 AM EST SUN DEC 17 2017

NOTE: "FAIR" INDICATES FEW OR NO CLOUDS BELOW 12,000 FEET WITH NO
SIGNIFICANT WEATHER AND/OR OBSTRUCTIONS TO VISIBILITY.

OHZ001>008-015>018-024>027-034-035-043-044-170800-
   NORTHWEST OHIO

CITY           SKY/WX    TMP DP  RH WIND       PRES   REMARKS
DEFIANCE       FOG       29  27  92 E8        30.12F VSB 1/4 WCI  21
FINDLAY        CLOUDY    28  23  81 E5        30.11F HAZE    WCI  23
TOLEDO EXPRESS CLOUDY    30  29  96 E6        30.13F WCI  24
TOLEDO EXEC    CLOUDY    31  28  89 NE6       30.15F WCI  25
LIMA           CLOUDY    34  27  75 S8        30.12S WCI  27
$$

OHZ009>014-019>023-028>033-038-089-170800-
   NORTHEAST OHIO

CITY           SKY/WX    TMP DP  RH WIND       PRES   REMARKS
CLE-HOPKINS    CLOUDY    26  24  92 CALM      30.17S FOG
CLE-LAKEFRONT  CLOUDY    30  26  85 CALM      30.16R
CUY CO. ARPT   NOT AVBL
LORAIN-ELYRIA  FOG       20  16  84 CALM      30.15R VSB 1/4
ASHTABULA      PTCLDY    20  20 100 CALM      30.17S FOG
AKRON-CANTON   CLOUDY    26  22  84 CALM      30.14R
WOOSTER        CLOUDY    26  22  84 CALM      30.14S
MANSFIELD      CLEAR     34  26  72 SW7       30.12F WCI  28
YOUNGSTOWN     CLOUDY    23  21  92 E3        30.13S
$$

OHZ042-051>053-060>062-070>072-077>081-170800-
  SOUTHWEST OHIO

CITY           SKY/WX    TMP DP  RH WIND       PRES   REMARKS
CINC-COVINGTON MOCLDY    37  30  75 S8        30.16F
CINC-LUNKEN    PTCLDY    27  26  96 CALM      30.19F
HAMILTON       CLOUDY    28  26  92 CALM      30.17F
DAYTON         CLOUDY    37  29  72 S10       30.14F
WRIGHT-PAT AFB CLOUDY    30  26  85 SE5       30.14F WCI  26
DAYTON GENERAL CLOUDY    33  26  75 S7        30.14F WCI  27
WILMINGTON     CLOUDY    33  28  81 S6        30.16F WCI  28
$$

OHZ036-037-039>041-045>050-054>059-063>069-073>076-082>088-170800-
  CENTRAL AND SOUTHEAST OHIO

CITY           SKY/WX    TMP DP  RH WIND       PRES   REMARKS
COLUMBUS       CLEAR     35  27  72 S5        30.17S
OSU AIRPORT    CLOUDY    33  27  78 S6        30.16R WCI  28
BOLTON FIELD   CLEAR     32  27  83 S5        30.17S WCI  27
RICKENBACK AFB CLEAR     34  29  80 S9        30.18R WCI  27
NEWARK         CLEAR     26  23  88 S3        30.17R
MARION         CLEAR     30  24  78 S9        30.14S WCI  22
LANCASTER      CLEAR     38  29  70 SW9       30.18R
ZANESVILLE     CLEAR     28  23  81 SW5       30.18R WCI  23
NEW PHILLY     NOT AVBL
$$




USA.gov is the U.S. government's official web portal to all federal, state and local government web resources and services.